Simultaneous Nadir Overpasses (SNOs) Predictions

Prediction of SNOs between AQUA and METOP-B Satellite Orbit:

Table of predicted SNOs for the next 14.0 days since TLE Epoch: 9/12/2015
Index Date (AQUA) Time (AQUA) Lat,Lon (AQUA) SZA (AQUA ) Date (METOP-B) Time (METOP-B) Lat,Lon (METOP-B) SZA (METOP-B ) Distance(km) Time Diff (sec)
1 09/13/2015 19:13:13 -73.58, 66.48 110.16 09/13/2015 19:12:01 -73.50, 65.81 110.22 22.88 72
2 09/13/2015 20:02:44 73.78,-126.32 70.06 09/13/2015 20:02:35 73.78,-126.21 70.07 3.41 9
3 09/13/2015 20:52:11 -73.84, 41.20 109.87 09/13/2015 20:53:16 -73.83, 41.23 109.88 1.21 65
4 09/16/2015 14:47:30 -73.69, 132.67 108.97 09/16/2015 14:46:19 -73.71, 132.69 108.95 1.69 71
5 09/16/2015 15:36:58 73.74, -59.79 71.10 09/16/2015 15:36:58 73.74, -59.90 71.10 3.51 0
6 09/16/2015 16:26:26 -73.84, 107.62 108.78 09/16/2015 16:27:38 -73.83, 107.65 108.80 1.57 72
7 09/19/2015 10:21:45 -73.72,-160.95 107.86 09/19/2015 10:20:41 -73.71,-160.90 107.86 1.91 64
8 09/19/2015 11:11:13 73.77, 6.58 72.21 09/19/2015 11:11:19 73.79, 6.62 72.24 2.93 6
9 09/19/2015 12:00:45 -74.08, 173.53 107.45 09/19/2015 12:01:55 -74.08, 174.66 107.47 34.61 70
10 09/22/2015 05:55:58 -73.71, -94.50 106.78 09/22/2015 05:55:02 -73.71, -94.50 106.77 0.34 56
11 09/22/2015 06:45:26 73.76, 73.03 73.29 09/22/2015 06:45:40 73.79, 73.03 73.32 3.10 14
12 09/22/2015 07:35:03 -74.33,-120.61 106.10 09/22/2015 07:36:11 -74.33,-118.32 106.15 68.98 68
13 09/25/2015 01:30:12 -73.72, -28.08 105.67 09/25/2015 01:29:24 -73.70, -28.10 105.69 2.20 48
14 09/25/2015 02:19:40 73.77, 139.45 74.40 09/25/2015 02:20:02 73.78, 139.42 74.41 1.54 22




NCC Satellite Simultaneous Nadir Overpasses (SNOs) Prediction Service
